Regional Weather Roundup
Issued by NWS

Home | Current Version | Previous Version | Graphics & Text | Print | Product List | Glossary On
Versions: 1 2 3 4 5 6 7 8 9 10 11 12 13 14 15 16 17 18 19 20 21 22 23 24 25 26 27 28 29 30 31 32 33 34 35 36 37 38 39 40 41 42 43 44 45 46 47 48 49 50
000
ASUS44 KMEG 211610
RWRTN
TENNESSEE HOURLY STATE WEATHER ROUNDUP
NATIONAL WEATHER SERVICE MEMPHIS TN
1000 AM CST SUN DEC 21 2014

TNZ002-004-019-021-049-052-054-088>092-211700-
WEST TENNESSEE

CITY           SKY/WX    TMP DP  RH WIND       PRES   REMARKS
MEMPHIS INTL   MOSUNNY   45  31  58 SE3       30.21F
NWS MEMPHIS      N/A     44 N/A N/A MISG        N/A
JACKSON        SUNNY     42  31  64 E3        30.22S
DYERSBURG      MOSUNNY   37  25  60 SE5       30.24S WCI  34
UNION CITY     SUNNY     36  30  80 E3        30.22S
PARIS          SUNNY     37  28  70 SE5       30.22S WCI  34
HUNTINGDON     SUNNY     37  29  73 SE3       30.22R
LEXINGTON      SUNNY     39  30  70 CALM      30.21S
SAVANNAH       SUNNY     39  32  75 CALM      30.21S
$$

TNZ008-025-027-028-033-062-065-066-211700-
NORTH MIDDLE TENNESSEE

CITY           SKY/WX    TMP DP  RH WIND       PRES   REMARKS
NASHVILLE      PTSUNNY   42  33  70 CALM      30.24F
CLARKSVILLE    SUNNY     36  30  79 E3        30.24F
SMYRNA         SUNNY     40  31  70 CALM      30.25F
COOKEVILLE     SUNNY     43  30  61 CALM      30.21F
CROSSVILLE     CLOUDY    41  28  60 E5        30.21F
$$

TNZ061-075-076-078-094-096-097-211700-
SOUTH MIDDLE TENNESSEE

CITY           SKY/WX    TMP DP  RH WIND       PRES   REMARKS
FAYETTEVILLE   SUNNY     43  34  70 MISG      30.18F
TULLAHOMA      SUNNY     43  32  65 E5        30.20F
WINCHESTER     SUNNY     45  36  70 E9        30.20F
MCMINNVILLE    SUNNY     41  34  75 CALM      30.20F
COLUMBIA       SUNNY     39  39 100 NE3       30.19F
SHELBYVILLE    SUNNY     45  36  70 E6        30.21F
$$

TNZ017-018-042-046-047-211700-
NORTHEAST TENNESSEE

CITY           SKY/WX    TMP DP  RH WIND       PRES   REMARKS
TRI CITIES     MOSUNNY   44  37  76 CALM      30.25S
ELIZABETHTON   CLOUDY    43  36  75 CALM      30.23F
$$

TNZ012-013-036-069-073-074-211700-
CENTRAL EAST TENNESSEE

CITY           SKY/WX    TMP DP  RH WIND       PRES   REMARKS
KNOXVILLE      CLOUDY    43  35  73 N7        30.24F
OAK RIDGE      CLOUDY    42  30  62 NE6       30.27S
GATLINBURG     SUNNY     43  37  81 E5        30.23F
MORRISTOWN     CLOUDY    45  36  70 E6        30.24F
$$

TNZ083-085-099-211700-
SOUTHEAST TENNESSEE

CITY           SKY/WX    TMP DP  RH WIND       PRES   REMARKS
CHATTANOOGA    CLOUDY    41  32  70 N8        30.24F
$$

SKY/WX REPORTED AS FAIR MEANS FEW OR NO CLOUDS BELOW
12 THOUSAND FEET.




USA.gov is the U.S. government's official web portal to all federal, state and local government web resources and services.